[[{"header":{"parameterUnit":"m.s-1","parameterCategory":1,"la1":30.2991,"la2":30.254,"lo1":-89.0895,"lo2":-89.0444,"dy":0.0017,"dx":0.0017,"nx":28,"ny":28,"refTime":"2024-06-06T09:00:00:Z","depth":0,"parameterNumber":2,"parameterNumberName":"U-component_of_WINDS"},"data":[0,0,0,0,0,0,0,0,0,0,0,0,0,0,0,0,0,0,0,0,0,0,0,0,0,0,0,0,0,0,0,0,0,0,0,0,0,0,0,0,0,0,0,0,0,0,0,0,0,0,0,0,0,0,0,0,0,0,-0.686,-0.686,0,-0.6875,-0.6875,-0.6875,-0.6858,-0.6858,-0.6857,-0.6856,-0.6871,-0.6872,-0.6873,0,0,0,0,0,0,0,0,0,0,0,0,0,-0.6818,-0.6819,-0.686,-0.686,-0.686,-0.6875,-0.6875,-0.6875,-0.6858,-0.6858,-0.6857,-0.6856,-0.6871,-0.6872,-0.6873,0,0,0,0,0,0,0,0,0,0,0,0,0,-0.6835,-0.6819,-0.686,-0.6854,-0.6854,-0.6875,-0.6875,-0.6875,-0.6859,-0.6858,-0.6857,-0.6856,-0.687,-0.6872,-0.6873,-0.6901,0,0,-0.6878,-0.6878,0,0,0,0,0,0,0,0,-0.6834,-0.6836,-0.6855,-0.6854,-0.6854,-0.6864,-0.6865,-0.6884,-0.6859,-0.6857,-0.6856,-0.6855,-0.6869,-0.6871,-0.6876,-0.6902,-0.6902,-0.6878,-0.6879,-0.6879,-0.688,0,0,0,0,0,0,0,-0.6833,-0.6836,-0.6866,-0.6855,-0.6855,-0.685,-0.6852,-0.6869,-0.6868,-0.6857,-0.6856,-0.6858,-0.6869,-0.6874,-0.6876,-0.6903,-0.6878,-0.6879,-0.688,-0.6881,-0.6952,-0.6953,0,0,0,0,0,0,-0.6832,-0.6835,-0.6865,-0.6866,-0.6841,-0.6852,-0.6853,-0.6862,-0.6868,-0.6868,-0.6858,-0.6857,-0.6872,-0.6874,-0.6876,-0.691,-0.6879,-0.6881,-0.6882,-0.6951,-0.6953,-0.6954,0,0,0,0,0,0,-0.6832,-0.6835,-0.6865,-0.685,-0.6854,-0.6854,-0.6863,-0.6862,-0.6868,-0.6869,-0.6869,-0.6864,-0.6872,-0.6874,-0.6895,-0.691,-0.6881,-0.6883,-0.695,-0.6952,-0.6953,-0.6976,0,0,0,0,0,0,-0.683,-0.6835,-0.6846,-0.6851,-0.6855,-0.6883,-0.6864,-0.6863,-0.687,-0.6868,-0.6874,-0.6874,-0.6871,-0.6893,-0.6897,-0.6911,-0.6884,-0.6949,-0.6951,-0.6953,-0.6974,-0.6978,-0.6982,0,0,0,0,0,-0.6829,-0.6851,-0.6846,-0.685,-0.6868,-0.6884,-0.6887,-0.6882,-0.6871,-0.6882,-0.6883,-0.6874,-0.6908,-0.6895,-0.6899,-0.6915,-0.6948,-0.695,-0.6952,-0.6972,-0.6977,-0.6982,0,0,0,0,0,0,-0.6848,-0.6852,-0.6846,-0.6871,-0.6877,-0.6881,-0.6895,-0.6888,-0.6898,-0.6895,-0.689,-0.6891,-0.6914,-0.6916,-0.6902,-0.6942,-0.6926,-0.6929,-0.694,-0.6944,-0.6948,-0.6947,-0.6885,0,0,0,0,0,-0.6855,-0.6868,-0.6871,-0.6892,-0.6896,-0.6895,-0.6902,-0.6898,-0.6905,-0.6907,-0.691,-0.6916,-0.6928,-0.6936,-0.6948,-0.6974,-0.6975,-0.6987,-0.699,-0.6994,-0.6997,-0.7011,-0.7016,-0.6961,-0.6961,-0.6961,0,0,-0.687,-0.6874,-0.6882,-0.6896,-0.6901,-0.6915,-0.6897,-0.6913,-0.6923,-0.691,-0.693,-0.6932,-0.6939,-0.6963,-0.6973,-0.6965,-0.7012,-0.6997,-0.6999,-0.7,-0.7014,-0.7019,-0.7024,-0.6963,-0.6963,-0.6962,0,0,-0.6904,-0.6908,-0.6927,-0.6932,-0.6939,-0.6938,-0.6942,-0.6948,-0.6948,-0.6968,-0.6959,-0.6971,-0.6991,-0.6997,-0.7002,-0.7039,-0.7031,-0.7042,-0.7063,-0.7077,-0.7082,-0.7085,-0.7099,-0.7104,-0.7045,-0.7045,-0.7045,0,-0.6922,-0.6942,-0.6937,-0.6953,-0.696,-0.6949,-0.6967,-0.6972,-0.6983,-0.6988,-0.6979,-0.7004,-0.7008,-0.7034,-0.7042,-0.7047,-0.7052,-0.7042,-0.7081,-0.7085,-0.7089,-0.7101,-0.7106,-0.7047,-0.7047,-0.7046,-0.7046,0,-0.6964,-0.6978,-0.6992,-0.7003,-0.7011,-0.7028,-0.7026,-0.7035,-0.703,-0.703,-0.7051,-0.7055,-0.7067,-0.7072,-0.7068,-0.7097,-0.7092,-0.7082,-0.7066,-0.7095,-0.7107,-0.7112,-0.7049,-0.7048,-0.7048,-0.7047,0,0,-0.7011,-0.7018,-0.7024,-0.7028,-0.7035,-0.7046,-0.7063,-0.7075,-0.7083,-0.709,-0.7104,-0.7122,-0.7113,-0.7119,-0.7116,-0.7128,-0.7157,-0.7117,-0.7117,-0.7125,-0.719,-0.7198,-0.7203,-0.7152,-0.7153,-0.7153,-0.7189,0,-0.7046,-0.7075,-0.7071,-0.7099,-0.7112,-0.7102,-0.7116,-0.7122,-0.7123,-0.7134,-0.7135,-0.7148,-0.7134,-0.7138,-0.715,-0.7151,-0.717,-0.7148,-0.7165,-0.7166,-0.7164,-0.7209,-0.7218,-0.7251,-0.7194,-0.7195,-0.7195,0,-0.709,-0.7099,-0.7129,-0.7134,-0.714,-0.7153,-0.7163,-0.7174,-0.7181,-0.718,-0.7187,-0.7181,-0.7198,-0.7181,-0.7205,-0.719,-0.7197,-0.7198,-0.7199,-0.7201,-0.7183,-0.7213,-0.7262,-0.7267,-0.7202,-0.7202,-0.7201,0,-0.7122,-0.7142,-0.7162,-0.7167,-0.7173,-0.7183,-0.7186,-0.7191,-0.7199,-0.7208,-0.7213,-0.7223,-0.723,-0.7238,-0.7235,-0.7223,-0.7259,-0.7242,-0.726,-0.726,-0.7268,-0.7268,-0.732,-0.7272,-0.7272,-0.7271,-0.7271,0,-0.7162,-0.7181,-0.7177,-0.719,-0.721,-0.7205,-0.7226,-0.7228,-0.7233,-0.7245,-0.7237,-0.7249,-0.7244,-0.7256,-0.7254,-0.7274,-0.7276,-0.7276,-0.7276,-0.7278,-0.7278,-0.7282,-0.728,-0.7273,-0.7272,-0.7272,-0.7272,0,-0.7202,-0.72,-0.7222,-0.7226,-0.7227,-0.7242,-0.7246,-0.7258,-0.7257,-0.7274,-0.7277,-0.7277,-0.729,-0.7288,-0.7303,-0.7301,-0.7327,-0.7323,-0.7325,-0.7324,-0.7342,-0.734,-0.7399,-0.7406,-0.7353,-0.7353,-0.7354,0,-0.7227,-0.7242,-0.7247,-0.7255,-0.7259,-0.7272,-0.7279,-0.7275,-0.7283,-0.7291,-0.7302,-0.7315,-0.7325,-0.7347,-0.7348,-0.736,-0.7357,-0.7376,-0.7358,-0.736,-0.7358,-0.7357,-0.7359,-0.738,-0.7381,-0.7381,-0.7382,0,-0.7274,-0.7272,-0.7283,-0.7294,-0.7303,-0.7312,-0.7319,-0.7326,-0.7322,-0.7332,-0.7346,-0.7353,-0.7369,-0.7382,-0.7392,-0.7395,-0.7388,-0.7387,-0.7392,-0.7394,-0.7395,-0.7396,-0.7335,-0.7386,-0.7386,-0.7385,-0.7385,-0.7385,-0.7308,-0.732,-0.7326,-0.7338,-0.7344,-0.7351,-0.7362,-0.7363,-0.7375,-0.7387,-0.7383,-0.7399,-0.7405,-0.7419,-0.7423,-0.7436,-0.7428,-0.7435,-0.7437,-0.7439,-0.7441,-0.7393,-0.7437,-0.7437,-0.7437,-0.7437,-0.7437,0,-0.7354,-0.7357,-0.7369,-0.738,-0.739,-0.7381,-0.7389,-0.7398,-0.7412,-0.7419,-0.7429,-0.7445,-0.7457,-0.7459,-0.7471,-0.748,-0.7477,-0.7484,-0.7483,-0.7484,-0.7447,-0.7442,-0.7486,-0.7486,-0.7486,-0.7486,-0.7486,-0.7486,-0.7379,-0.74,-0.7399,-0.7421,-0.7424,-0.744,-0.7445,-0.7452,-0.7457,-0.7475,-0.7486,-0.7487,-0.7491,-0.7503,-0.7514,-0.7515,-0.752,-0.7528,-0.7527,-0.7492,-0.7487,-0.7482,-0.7478,-0.7529,-0.7529,-0.7563,-0.7563,-0.7564]},{"header":{"parameterUnit":"m.s-1","parameterCategory":1,"la1":30.2991,"la2":30.254,"lo1":-89.0895,"lo2":-89.0444,"dy":0.0017,"dx":0.0017,"nx":28,"ny":28,"refTime":"2024-06-06T09:00:00:Z","depth":0,"parameterNumber":3,"parameterNumberName":"V-component_of_WINDS"},"data":[0,0,0,0,0,0,0,0,0,0,0,0,0,0,0,0,0,0,0,0,0,0,0,0,0,0,0,0,0,0,0,0,0,0,0,0,0,0,0,0,0,0,0,0,0,0,0,0,0,0,0,0,0,0,0,0,0,0,-0.7658,-0.7658,0,-0.7687,-0.7688,-0.7688,-0.7699,-0.7698,-0.7698,-0.7698,-0.7731,-0.7732,-0.7733,0,0,0,0,0,0,0,0,0,0,0,0,0,-0.7613,-0.7614,-0.7658,-0.7658,-0.7658,-0.7687,-0.7688,-0.7688,-0.7699,-0.7698,-0.7698,-0.7698,-0.7731,-0.7732,-0.7733,0,0,0,0,0,0,0,0,0,0,0,0,0,-0.7636,-0.7614,-0.7657,-0.7667,-0.7668,-0.7687,-0.7688,-0.7688,-0.7699,-0.7698,-0.7698,-0.7698,-0.773,-0.7732,-0.7733,-0.7745,0,0,-0.7738,-0.7738,0,0,0,0,0,0,0,0,-0.7635,-0.7638,-0.7665,-0.7666,-0.7668,-0.7689,-0.7684,-0.7707,-0.7699,-0.7687,-0.7698,-0.7698,-0.7717,-0.772,-0.7726,-0.7747,-0.7748,-0.7738,-0.7739,-0.7739,-0.774,0,0,0,0,0,0,0,-0.7633,-0.7637,-0.7669,-0.7666,-0.7667,-0.7671,-0.7674,-0.7688,-0.7703,-0.7688,-0.7689,-0.7692,-0.7718,-0.7724,-0.7727,-0.7749,-0.7738,-0.7739,-0.774,-0.774,-0.7783,-0.7784,0,0,0,0,0,0,-0.763,-0.7635,-0.7668,-0.767,-0.7651,-0.7672,-0.7675,-0.7682,-0.7703,-0.7706,-0.7692,-0.7693,-0.7722,-0.7725,-0.7728,-0.7744,-0.7739,-0.7741,-0.7741,-0.7783,-0.7783,-0.7784,0,0,0,0,0,0,-0.7629,-0.7633,-0.7667,-0.7653,-0.7658,-0.7673,-0.7681,-0.7683,-0.7689,-0.7706,-0.7709,-0.7696,-0.7722,-0.7726,-0.7741,-0.7746,-0.7741,-0.7742,-0.7783,-0.7783,-0.7783,-0.7777,0,0,0,0,0,0,-0.7628,-0.7632,-0.7636,-0.7653,-0.7658,-0.7679,-0.7681,-0.7684,-0.7692,-0.7692,-0.771,-0.7713,-0.7722,-0.7739,-0.7743,-0.7747,-0.7744,-0.7782,-0.7783,-0.7783,-0.7777,-0.7777,-0.7777,0,0,0,0,0,-0.7626,-0.7633,-0.7636,-0.764,-0.7664,-0.7679,-0.7682,-0.7692,-0.7692,-0.7697,-0.7708,-0.7712,-0.7745,-0.774,-0.7745,-0.775,-0.7782,-0.7783,-0.7783,-0.7777,-0.7777,-0.7777,0,0,0,0,0,0,-0.7617,-0.7636,-0.7639,-0.7652,-0.7664,-0.7681,-0.7687,-0.7692,-0.7705,-0.7705,-0.7717,-0.7721,-0.7736,-0.7745,-0.774,-0.7764,-0.7764,-0.7765,-0.7757,-0.7758,-0.7758,-0.7755,-0.7745,0,0,0,0,0,-0.7617,-0.7627,-0.7643,-0.7653,-0.7659,-0.7672,-0.7679,-0.7686,-0.7699,-0.7704,-0.7716,-0.7729,-0.7742,-0.775,-0.7763,-0.7778,-0.7783,-0.7784,-0.7785,-0.7785,-0.7786,-0.7795,-0.7796,-0.7786,-0.7786,-0.7786,0,0,-0.7616,-0.7628,-0.7633,-0.7652,-0.7662,-0.7673,-0.7676,-0.7688,-0.7696,-0.7706,-0.7721,-0.773,-0.7746,-0.7761,-0.7769,-0.7769,-0.779,-0.7785,-0.7785,-0.7786,-0.7796,-0.7797,-0.7798,-0.7786,-0.7786,-0.7786,0,0,-0.762,-0.763,-0.7639,-0.7649,-0.7664,-0.7673,-0.7676,-0.7692,-0.7698,-0.7714,-0.7721,-0.7733,-0.7755,-0.7766,-0.7774,-0.7785,-0.779,-0.7789,-0.779,-0.7799,-0.78,-0.78,-0.7805,-0.7806,-0.779,-0.779,-0.779,0,-0.7618,-0.7634,-0.7644,-0.7655,-0.7664,-0.7673,-0.7683,-0.7693,-0.7711,-0.7717,-0.7718,-0.7746,-0.7757,-0.7776,-0.7778,-0.7785,-0.7789,-0.7786,-0.7799,-0.7799,-0.78,-0.7804,-0.7806,-0.7789,-0.7789,-0.779,-0.779,0,-0.763,-0.7642,-0.7648,-0.7665,-0.7675,-0.7686,-0.7698,-0.7707,-0.7713,-0.7722,-0.7738,-0.7752,-0.7769,-0.7774,-0.778,-0.7794,-0.7793,-0.7796,-0.7796,-0.7801,-0.7805,-0.7807,-0.7789,-0.7789,-0.7789,-0.7789,0,0,-0.7629,-0.7652,-0.7655,-0.7663,-0.7681,-0.769,-0.7702,-0.7718,-0.7725,-0.7738,-0.7749,-0.7768,-0.7771,-0.7781,-0.7789,-0.7797,-0.7805,-0.7798,-0.7799,-0.7799,-0.7821,-0.7819,-0.7821,-0.7808,-0.7809,-0.7809,-0.782,0,-0.7636,-0.7657,-0.7667,-0.7683,-0.7695,-0.7704,-0.7715,-0.7727,-0.7737,-0.7749,-0.776,-0.7773,-0.7775,-0.7781,-0.779,-0.7802,-0.7809,-0.7801,-0.782,-0.782,-0.7815,-0.7823,-0.782,-0.783,-0.7822,-0.7822,-0.7822,0,-0.7646,-0.7659,-0.7676,-0.7694,-0.7699,-0.7708,-0.7724,-0.7734,-0.775,-0.7756,-0.7767,-0.7775,-0.779,-0.7789,-0.781,-0.7804,-0.7813,-0.782,-0.782,-0.7822,-0.7821,-0.7825,-0.7833,-0.7835,-0.7825,-0.7825,-0.7824,0,-0.7644,-0.7665,-0.7679,-0.7686,-0.7706,-0.7713,-0.7721,-0.7736,-0.7745,-0.776,-0.7766,-0.7782,-0.779,-0.7803,-0.7815,-0.7814,-0.7835,-0.7836,-0.7842,-0.7841,-0.7845,-0.7845,-0.7855,-0.7851,-0.7851,-0.7851,-0.7851,0,-0.765,-0.7661,-0.7678,-0.7686,-0.7699,-0.7711,-0.7724,-0.7734,-0.7747,-0.7758,-0.7768,-0.7779,-0.7794,-0.7807,-0.7817,-0.7833,-0.7837,-0.7844,-0.7846,-0.7843,-0.7842,-0.7848,-0.7848,-0.7851,-0.7851,-0.7851,-0.7851,0,-0.7649,-0.7661,-0.7677,-0.7695,-0.77,-0.7708,-0.7724,-0.7734,-0.7744,-0.7758,-0.7762,-0.7779,-0.7795,-0.7808,-0.783,-0.7837,-0.7853,-0.7856,-0.7848,-0.7849,-0.7854,-0.7854,-0.7869,-0.7871,-0.7865,-0.7865,-0.7865,0,-0.7652,-0.7661,-0.768,-0.7688,-0.7696,-0.7709,-0.7718,-0.7731,-0.7741,-0.7759,-0.7767,-0.7783,-0.7797,-0.7822,-0.7837,-0.7853,-0.7857,-0.7861,-0.7859,-0.7856,-0.7857,-0.7857,-0.7858,-0.7861,-0.7861,-0.7861,-0.7861,0,-0.7657,-0.7663,-0.7675,-0.769,-0.7701,-0.7713,-0.7726,-0.7733,-0.7748,-0.7759,-0.7775,-0.7785,-0.7807,-0.7824,-0.7842,-0.7853,-0.786,-0.7862,-0.7864,-0.786,-0.7855,-0.7858,-0.7848,-0.7861,-0.7861,-0.7861,-0.7861,-0.7861,-0.7658,-0.7666,-0.7681,-0.7695,-0.7706,-0.7718,-0.7728,-0.774,-0.7753,-0.7771,-0.7778,-0.7795,-0.7812,-0.7837,-0.7848,-0.7862,-0.7863,-0.7866,-0.7867,-0.7867,-0.7867,-0.7853,-0.7865,-0.7865,-0.7865,-0.7865,-0.7865,0,-0.7663,-0.7674,-0.7686,-0.7704,-0.7715,-0.7721,-0.7736,-0.7745,-0.7759,-0.7774,-0.7787,-0.7806,-0.7823,-0.7839,-0.7857,-0.7865,-0.7869,-0.7869,-0.7868,-0.7871,-0.7865,-0.7861,-0.7866,-0.7866,-0.7866,-0.7866,-0.7866,-0.7866,-0.7667,-0.7682,-0.7689,-0.771,-0.772,-0.7736,-0.7744,-0.7756,-0.7767,-0.7788,-0.7801,-0.7812,-0.7827,-0.7846,-0.7862,-0.7867,-0.7873,-0.7872,-0.7878,-0.7872,-0.7871,-0.7871,-0.7868,-0.7874,-0.7874,-0.7883,-0.7883,-0.7883]}]]